| time (UTC) | temp F | wind direction | speed MPH | gust MPH | rain 1hr in | rain 24hr in | rain mn in | humidity % | barometer mb |
| 20260504140903 | 59 | 260 | 0.0 | 6.0 | 0.00 | 0.00 | 0.00 | 47 | 1006.7 |
| 20260504081803 | 38 | 0 | 0.0 | 0.0 | 0.00 | 0.00 | 0.00 | 92 | 1008.7 |
| 20260504080924 | 38 | 0 | 0.0 | 0.0 | 0.00 | 0.00 | 0.00 | 92 | 1008.6 |
| 20260504050003 | 36 | 0 | 0.0 | 0.0 | 0.00 | 0.00 | 0.00 | 86 | 1008.8 |
| 20260504045403 | 35 | 0 | 0.0 | 0.0 | 0.00 | 0.00 | 0.00 | 86 | 1009.0 |
| 20260504044503 | 35 | 0 | 0.0 | 0.0 | 0.00 | 0.00 | 0.00 | 85 | 1009.0 |
| 20260504043624 | 35 | 0 | 0.0 | 0.0 | 0.00 | 0.00 | 0.00 | 85 | 1008.9 |
| 20260504042703 | 35 | 0 | 0.0 | 0.0 | 0.00 | 0.00 | 0.00 | 85 | 1009.0 |
| 20260504041803 | 34 | 0 | 0.0 | 0.0 | 0.00 | 0.00 | 0.00 | 84 | 1009.1 |
| 20260504040903 | 34 | 0 | 0.0 | 0.0 | 0.00 | 0.00 | 0.00 | 84 | 1008.9 |
| 20260504040003 | 34 | 0 | 0.0 | 0.0 | 0.00 | 0.00 | 0.00 | 83 | 1008.9 |
| 20260504035404 | 34 | 0 | 0.0 | 0.0 | 0.00 | 0.00 | 0.00 | 83 | 1008.8 |
| 20260504034503 | 34 | 0 | 0.0 | 0.0 | 0.00 | 0.00 | 0.00 | 82 | 1008.8 |
| 20260504033624 | 34 | 0 | 0.0 | 0.0 | 0.00 | 0.00 | 0.00 | 82 | 1008.8 |
| 20260504032724 | 34 | 0 | 0.0 | 0.0 | 0.00 | 0.00 | 0.00 | 81 | 1008.7 |
| 20260504031803 | 35 | 0 | 0.0 | 0.0 | 0.00 | 0.00 | 0.00 | 80 | 1008.8 |
| 20260504030903 | 35 | 0 | 0.0 | 0.0 | 0.00 | 0.00 | 0.00 | 80 | 1008.9 |
| 20260504030003 | 35 | 0 | 0.0 | 0.0 | 0.00 | 0.00 | 0.00 | 79 | 1008.8 |
| 20260504025424 | 35 | 0 | 0.0 | 0.0 | 0.00 | 0.00 | 0.00 | 79 | 1008.8 |
| 20260504024503 | 36 | 0 | 0.0 | 0.0 | 0.00 | 0.00 | 0.00 | 78 | 1008.7 |
| 20260504023603 | 36 | 0 | 0.0 | 0.0 | 0.00 | 0.00 | 0.00 | 78 | 1008.7 |
| 20260504022703 | 36 | 0 | 0.0 | 0.0 | 0.00 | 0.00 | 0.00 | 76 | 1008.8 |
| 20260504021803 | 37 | 0 | 0.0 | 0.0 | 0.00 | 0.00 | 0.00 | 74 | 1008.8 |
| 20260504020903 | 38 | 0 | 0.0 | 0.0 | 0.00 | 0.00 | 0.00 | 72 | 1008.8 |
| 20260504020025 | 38 | 0 | 0.0 | 0.0 | 0.00 | 0.00 | 0.00 | 71 | 1008.6 |
| 20260504015424 | 39 | 0 | 0.0 | 0.0 | 0.00 | 0.00 | 0.00 | 70 | 1008.5 |
| 20260504014503 | 40 | 0 | 0.0 | 0.0 | 0.00 | 0.00 | 0.00 | 70 | 1008.5 |
| 20260504013603 | 40 | 0 | 0.0 | 0.0 | 0.00 | 0.00 | 0.00 | 69 | 1008.4 |
| 20260504012703 | 41 | 0 | 0.0 | 0.0 | 0.00 | 0.00 | 0.00 | 65 | 1008.3 |
| 20260504011803 | 41 | 0 | 0.0 | 0.0 | 0.00 | 0.00 | 0.00 | 66 | 1008.1 |
| 20260504010903 | 42 | 0 | 0.0 | 0.0 | 0.00 | 0.00 | 0.00 | 64 | 1007.9 |
| 20260504010004 | 43 | 0 | 0.0 | 0.0 | 0.00 | 0.00 | 0.00 | 63 | 1007.9 |
| 20260504005424 | 43 | 0 | 0.0 | 0.0 | 0.00 | 0.00 | 0.00 | 62 | 1007.8 |
| 20260504004503 | 44 | 0 | 0.0 | 0.0 | 0.00 | 0.00 | 0.00 | 60 | 1007.7 |
| 20260504003603 | 44 | 0 | 0.0 | 0.0 | 0.00 | 0.00 | 0.00 | 60 | 1007.6 |
| 20260504002703 | 45 | 0 | 0.0 | 0.0 | 0.00 | 0.00 | 0.00 | 58 | 1007.5 |
| 20260504001803 | 46 | 0 | 0.0 | 0.0 | 0.00 | 0.00 | 0.00 | 56 | 1007.4 |
| 20260504000903 | 47 | 0 | 0.0 | 0.0 | 0.00 | 0.00 | 0.00 | 52 | 1007.4 |
| 20260504000003 | 48 | 0 | 0.0 | 0.0 | 0.00 | 0.00 | 0.00 | 53 | 1007.2 |
| 20260503235404 | 48 | 0 | 0.0 | 0.0 | 0.00 | 0.00 | 0.00 | 54 | 1007.1 |
| 20260503234503 | 49 | 0 | 0.0 | 0.0 | 0.00 | 0.00 | 0.00 | 46 | 1007.1 |
| 20260503233603 | 50 | 0 | 0.0 | 0.0 | 0.00 | 0.00 | 0.00 | 45 | 1007.0 |
| 20260503232724 | 50 | 0 | 0.0 | 0.0 | 0.00 | 0.00 | 0.00 | 43 | 1006.9 |
| 20260503231803 | 50 | 0 | 0.0 | 0.0 | 0.00 | 0.00 | 0.00 | 42 | 1006.9 |
| 20260503230903 | 50 | 0 | 0.0 | 0.0 | 0.00 | 0.00 | 0.00 | 42 | 1006.9 |
| 20260503230003 | 51 | 0 | 0.0 | 0.0 | 0.00 | 0.00 | 0.00 | 42 | 1007.0 |
| 20260503225423 | 51 | 0 | 0.0 | 0.0 | 0.00 | 0.00 | 0.00 | 42 | 1007.0 |
| 20260503224503 | 51 | 0 | 0.0 | 0.0 | 0.00 | 0.00 | 0.00 | 42 | 1006.9 |
| 20260503223603 | 51 | 0 | 0.0 | 0.0 | 0.00 | 0.00 | 0.00 | 44 | 1006.9 |
| 20260503222703 | 51 | 0 | 0.0 | 0.0 | 0.00 | 0.00 | 0.00 | 44 | 1006.9 |
| 20260503221803 | 51 | 0 | 0.0 | 0.0 | 0.00 | 0.00 | 0.00 | 44 | 1006.9 |
| 20260503220903 | 51 | 0 | 0.0 | 0.0 | 0.00 | 0.00 | 0.00 | 44 | 1006.9 |
| 20260503220024 | 51 | 0 | 0.0 | 0.0 | 0.00 | 0.00 | 0.00 | 46 | 1006.9 |
| 20260503215403 | 51 | 319 | 0.0 | 3.0 | 0.00 | 0.00 | 0.00 | 44 | 1006.8 |
| 20260503214503 | 51 | 318 | 0.0 | 1.0 | 0.00 | 0.00 | 0.00 | 45 | 1006.8 |
| 20260503213603 | 51 | 0 | 0.0 | 0.0 | 0.00 | 0.00 | 0.00 | 45 | 1006.7 |
| 20260503212703 | 51 | 0 | 0.0 | 0.0 | 0.00 | 0.00 | 0.00 | 45 | 1006.8 |
| 20260503211802 | 51 | 0 | 0.0 | 0.0 | 0.00 | 0.00 | 0.00 | 45 | 1006.7 |
| 20260503210925 | 51 | 0 | 0.0 | 0.0 | 0.00 | 0.00 | 0.00 | 43 | 1006.7 |
| 20260503210003 | 51 | 303 | 0.0 | 1.0 | 0.00 | 0.00 | 0.00 | 44 | 1006.7 |
| 20260503205403 | 51 | 305 | 0.0 | 1.0 | 0.00 | 0.00 | 0.00 | 43 | 1006.7 |
| 20260503204524 | 50 | 289 | 0.0 | 12.0 | 0.00 | 0.00 | 0.00 | 45 | 1006.7 |
| 20260503203603 | 50 | 317 | 0.0 | 1.0 | 0.00 | 0.00 | 0.00 | 43 | 1006.8 |
| 20260503202724 | 50 | 0 | 0.0 | 0.0 | 0.00 | 0.00 | 0.00 | 43 | 1006.7 |
| 20260503201804 | 50 | 306 | 0.0 | 2.0 | 0.00 | 0.00 | 0.00 | 43 | 1006.7 |
| 20260503200903 | 50 | 319 | 0.0 | 1.0 | 0.00 | 0.00 | 0.00 | 42 | 1006.7 |
| 20260503200003 | 51 | 335 | 0.0 | 2.0 | 0.00 | 0.00 | 0.00 | 42 | 1006.7 |
| 20260503195403 | 51 | 345 | 0.0 | 8.0 | 0.00 | 0.00 | 0.00 | 42 | 1006.8 |
| 20260503194503 | 51 | 319 | 0.0 | 9.0 | 0.00 | 0.00 | 0.00 | 46 | 1006.8 |
| 20260503193603 | 51 | 302 | 0.0 | 2.0 | 0.00 | 0.00 | 0.00 | 44 | 1006.8 |
| 20260503192703 | 50 | 304 | 0.0 | 4.0 | 0.00 | 0.00 | 0.00 | 44 | 1006.9 |
| 20260503191803 | 50 | 343 | 0.0 | 2.0 | 0.00 | 0.00 | 0.00 | 46 | 1006.9 |
| 20260503190903 | 51 | 318 | 0.0 | 5.0 | 0.00 | 0.00 | 0.00 | 42 | 1006.8 |
| 20260503190003 | 52 | 310 | 0.0 | 5.0 | 0.00 | 0.00 | 0.00 | 41 | 1006.9 |
| 20260503185403 | 52 | 297 | 0.0 | 1.0 | 0.00 | 0.00 | 0.00 | 46 | 1006.8 |
| 20260503184524 | 50 | 299 | 0.0 | 3.0 | 0.00 | 0.00 | 0.00 | 45 | 1006.9 |
| 20260503183603 | 50 | 296 | 0.0 | 8.0 | 0.00 | 0.00 | 0.00 | 45 | 1006.8 |
| 20260503182724 | 50 | 313 | 1.0 | 14.0 | 0.00 | 0.00 | 0.00 | 44 | 1006.8 |
| 20260503181803 | 51 | 315 | 2.0 | 14.0 | 0.00 | 0.00 | 0.00 | 42 | 1006.6 |
| 20260503180903 | 52 | 304 | 0.0 | 10.0 | 0.00 | 0.00 | 0.00 | 39 | 1006.4 |
| 20260503180003 | 53 | 328 | 0.0 | 9.0 | 0.00 | 0.00 | 0.00 | 38 | 1006.3 |
| 20260503175403 | 54 | 0 | 0.0 | 0.0 | 0.00 | 0.00 | 0.00 | 37 | 1006.3 |
| 20260503174524 | 54 | 0 | 0.0 | 0.0 | 0.00 | 0.01 | 0.00 | 36 | 1006.3 |
| 20260503173603 | 53 | 292 | 0.0 | 2.0 | 0.00 | 0.01 | 0.00 | 39 | 1006.4 |
| 20260503172703 | 53 | 332 | 0.0 | 5.0 | 0.00 | 0.01 | 0.00 | 41 | 1006.3 |
| 20260503171803 | 50 | 312 | 0.0 | 5.0 | 0.00 | 0.01 | 0.00 | 41 | 1006.5 |
| 20260503170903 | 50 | 290 | 0.0 | 7.0 | 0.00 | 0.01 | 0.00 | 43 | 1006.4 |
| 20260503150903 | 47 | 331 | 0.0 | 1.0 | 0.00 | 0.01 | 0.00 | 52 | 1007.3 |